Вернуться в каталог

SL-8 R/B

АктивенPO
NORAD 23466·ROCKET BODY·🇷🇺 Russia

Запущен Jan 24, 1995 с Plesetsk Cosmodrome

Loading…

Ближайшие Пролёты (ближайшие 24 часа)

TLE

СвежийSource: Space-Track

Эпоха: Sep 14, 2026, 13:33 UTC

1 23466U 95002D   26257.56484168  .00000148  00000-0  13875-3 0  9991
2 23466  82.9211 280.3660 0035342 150.5846  15.9131 13.74736021586853

Отслеживайте SL-8 R/B в реальном времени с AllMySat

Download on the App Store